Weather History for Coldwater, MI

Change the Weather History Date:

Monday, May 20, 2013

  Actual Average (KJYM) Record (KJYM)
Temperature  
Mean Temperature 77 °F -  
Max Temperature 87 °F 71 °F 88 °F (1977)
Min Temperature 67 °F 46 °F 29 °F (1954)
Cooling Degree Days 12    
Growing Degree Days 27 (Base 50)    
Moisture  
Dew Point 63 °F    
Average Humidity 64    
Maximum Humidity 83    
Minimum Humidity 41    
Precipitation  
Precipitation 0.00 in - - ()
Sea Level Pressure  
Sea Level Pressure 29.86 in    
Wind  
Wind Speed 7 mph (South)    
Max Wind Speed 20 mph    
Max Gust Speed 29 mph    
Visibility 9 miles    
Events Rain    
Averages and records for this station are not official NWS values.
T = Trace of Precipitation, MM = Missing Value Source: NWS Daily Summary

Daily Weather History Graph

Daily Weather History Graph

Search for Another Location

Airport:

Trip Planner

Search our weather history database for the weather conditions in past years. The results will help you decide how hot, cold, wet, or windy it might be!

Date:

Astronomy

May. 20, 2013 Rise Set
Actual Time 6:15 AM EDT 8:58 PM EDT
Civil Twilight 5:42 AM EDT 9:31 PM EDT
Nautical Twilight 5:01 AM EDT 10:12 PM EDT
Astronomical Twilight 4:15 AM EDT 10:59 PM EDT
Moon 4:01 PM EDT (5/20) 3:14 AM EDT (5/20)
Length of Visible Light 15h 48m
Length of Day
14h 43m
Waxing Gibbous, 75% of the Moon is Illuminated
May 20
Waxing Gibbous
May 25
Full
May 31
Last Quarter
Jun 8
New
Jun 16
First Quarter

Hourly Weather History & Observations

Time (EDT) Temp. Heat Index Dew Point Humidity Pressure Visibility Wind Dir Wind Speed Gust Speed Precip Events Conditions
12:15 AM 71.6 °F - 59.9 °F 66% 29.90 in 10.0 mi SSE 4.6 mph - N/A   Clear
12:35 AM 71.2 °F - 59.9 °F 67% 29.91 in 10.0 mi SSE 3.5 mph - N/A   Clear
12:55 AM 70.7 °F - 59.9 °F 69% 29.90 in 10.0 mi SSE 4.6 mph - N/A   Clear
1:15 AM 70.0 °F - 59.7 °F 70% 29.90 in 10.0 mi SSE 4.6 mph - N/A   Clear
1:35 AM 69.8 °F - 59.4 °F 69% 29.89 in 10.0 mi SSE 4.6 mph - N/A   Clear
1:54 AM 69.8 °F - 59.4 °F 69% 29.90 in 10.0 mi SSE 4.6 mph - N/A   Clear
2:15 AM 69.4 °F - 59.9 °F 72% 29.90 in 10.0 mi SSE 5.8 mph - N/A   Clear
2:35 AM 69.1 °F - 60.1 °F 73% 29.90 in 10.0 mi SSE 4.6 mph - N/A   Clear
2:54 AM 68.9 °F - 60.3 °F 74% 29.90 in 10.0 mi SSE 5.8 mph - N/A   Clear
3:15 AM 68.9 °F - 60.4 °F 74% 29.89 in 10.0 mi SSE 5.8 mph - N/A   Clear
3:35 AM 68.7 °F - 60.4 °F 75% 29.89 in 10.0 mi SSE 5.8 mph - N/A   Clear
4:15 AM 68.9 °F - 60.8 °F 75% 29.89 in 10.0 mi SSE 6.9 mph - N/A   Mostly Cloudy
4:35 AM 68.9 °F - 60.8 °F 75% 29.90 in 7.0 mi SSE 6.9 mph - N/A   Mostly Cloudy
4:55 AM 68.5 °F - 61.0 °F 77% 29.90 in 7.0 mi SSE 6.9 mph - N/A   Scattered Clouds
5:15 AM 68.5 °F - 61.5 °F 78% 29.89 in 7.0 mi South 4.6 mph - N/A Rain Light Rain
5:34 AM 68.4 °F - 61.7 °F 79% 29.89 in 7.0 mi SSE 5.8 mph - N/A   Scattered Clouds
5:55 AM 68.0 °F - 61.7 °F 80% 29.88 in 7.0 mi SSE 5.8 mph - N/A   Clear
6:15 AM 67.3 °F - 61.7 °F 82% 29.88 in 7.0 mi SE 9.2 mph - N/A   Clear
6:34 AM 67.3 °F - 61.9 °F 83% 29.86 in 7.0 mi SE 8.1 mph - N/A   Clear
6:55 AM 67.6 °F - 62.2 °F 83% 29.88 in 7.0 mi SSE 6.9 mph - N/A   Clear
7:15 AM 68.0 °F - 62.6 °F 83% 29.89 in 7.0 mi South 4.6 mph - N/A   Clear
7:35 AM 68.9 °F - 63.1 °F 82% 29.91 in 7.0 mi South 4.6 mph - N/A   Scattered Clouds
7:55 AM 70.0 °F - 64.0 °F 81% 29.92 in 7.0 mi South 5.8 mph - N/A   Overcast
8:15 AM 71.6 °F - 65.3 °F 80% 29.91 in 7.0 mi South 6.9 mph - N/A   Mostly Cloudy
8:35 AM 71.8 °F - 65.3 °F 80% 29.92 in 7.0 mi South 4.6 mph - N/A   Overcast
8:55 AM 73.9 °F - 66.2 °F 77% 29.91 in 7.0 mi South 8.1 mph - N/A   Mostly Cloudy
9:15 AM 74.7 °F - 66.4 °F 75% 29.92 in 7.0 mi SSW 11.5 mph 18.4 mph N/A   Scattered Clouds
9:35 AM 74.1 °F - 66.6 °F 77% 29.92 in 7.0 mi South 5.8 mph - N/A   Mostly Cloudy
10:15 AM 75.2 °F - 66.6 °F 74% 29.91 in 7.0 mi South 5.8 mph - N/A   Overcast
10:35 AM 75.2 °F - 66.7 °F 75% 29.91 in 7.0 mi South 6.9 mph - N/A   Overcast
10:55 AM 76.5 °F - 66.9 °F 72% 29.90 in 7.0 mi South 6.9 mph - N/A   Overcast
11:35 AM 78.6 °F - 67.3 °F 68% 29.90 in 7.0 mi SSW 8.1 mph - N/A   Overcast
11:54 AM 77.2 °F - 66.6 °F 70% 29.90 in 10.0 mi South 9.2 mph - N/A   Overcast
12:15 PM 78.8 °F - 66.6 °F 66% 29.89 in 10.0 mi South 9.2 mph - N/A   Overcast
12:35 PM 79.2 °F - 66.7 °F 66% 29.89 in 10.0 mi South 5.8 mph - N/A   Overcast
12:54 PM 80.2 °F 82.5 °F 66.4 °F 63% 29.89 in 10.0 mi South 10.4 mph - N/A   Mostly Cloudy
1:15 PM 81.7 °F 83.8 °F 66.0 °F 59% 29.88 in 10.0 mi South 6.9 mph - N/A   Mostly Cloudy
1:35 PM 82.8 °F 84.5 °F 65.1 °F 55% 29.88 in 10.0 mi South 8.1 mph - N/A   Mostly Cloudy
2:15 PM 83.5 °F 84.9 °F 64.2 °F 52% 29.86 in 10.0 mi South 10.4 mph 17.3 mph N/A   Mostly Cloudy
2:55 PM 84.4 °F 85.2 °F 62.8 °F 48% 29.84 in 10.0 mi South 9.2 mph 19.6 mph N/A   Scattered Clouds
3:15 PM 85.3 °F 85.9 °F 62.1 °F 46% 29.83 in 10.0 mi South 10.4 mph 20.7 mph N/A   Scattered Clouds
3:34 PM 86.0 °F 86.6 °F 62.2 °F 45% 29.82 in 10.0 mi South 13.8 mph 21.9 mph N/A   Scattered Clouds
3:55 PM 86.4 °F 86.5 °F 61.3 °F 43% 29.82 in 10.0 mi South 11.5 mph 18.4 mph N/A   Scattered Clouds
4:15 PM 87.1 °F 87.2 °F 61.3 °F 42% 29.81 in 10.0 mi SSW 13.8 mph 21.9 mph N/A   Scattered Clouds
4:34 PM 86.9 °F 86.7 °F 60.8 °F 41% 29.81 in 10.0 mi SSW 15.0 mph 21.9 mph N/A   Scattered Clouds
4:55 PM 86.0 °F 86.1 °F 60.8 °F 43% 29.80 in 10.0 mi SW 19.6 mph 27.6 mph N/A   Scattered Clouds
5:15 PM 85.5 °F 85.7 °F 61.5 °F 44% 29.81 in 10.0 mi SSW 17.3 mph 27.6 mph N/A   Mostly Cloudy
5:34 PM 85.1 °F 85.7 °F 61.9 °F 46% 29.81 in 10.0 mi SW 18.4 mph 28.8 mph N/A   Scattered Clouds
5:55 PM 84.2 °F 84.0 °F 59.5 °F 43% 29.82 in 10.0 mi SSW 19.6 mph 27.6 mph N/A   Scattered Clouds
6:15 PM 83.3 °F 83.5 °F 60.4 °F 46% 29.81 in 10.0 mi SW 18.4 mph 24.2 mph N/A   Scattered Clouds
6:34 PM 82.6 °F 83.1 °F 61.3 °F 48% 29.82 in 10.0 mi SW 16.1 mph 24.2 mph N/A   Scattered Clouds
6:55 PM 82.8 °F 83.4 °F 61.7 °F 49% 29.81 in 10.0 mi SW 17.3 mph 27.6 mph N/A   Scattered Clouds
7:15 PM 82.0 °F 82.8 °F 61.5 °F 50% 29.81 in 10.0 mi SW 13.8 mph 21.9 mph N/A   Clear
7:35 PM 82.0 °F 82.8 °F 61.7 °F 50% 29.81 in 10.0 mi SW 16.1 mph 21.9 mph N/A   Clear
7:55 PM 81.5 °F 82.4 °F 61.9 °F 51% 29.81 in 10.0 mi SW 10.4 mph 23.0 mph N/A   Clear
8:14 PM 80.4 °F 81.5 °F 62.1 °F 53% 29.82 in 10.0 mi SSW 13.8 mph 20.7 mph N/A   Clear
8:35 PM 79.5 °F - 62.6 °F 56% 29.82 in 10.0 mi SSW 9.2 mph - N/A   Clear
8:55 PM 79.2 °F - 62.6 °F 57% 29.82 in 10.0 mi South 5.8 mph - N/A   Clear
9:14 PM 78.1 °F - 62.6 °F 59% 29.82 in 10.0 mi South 5.8 mph - N/A   Clear
9:35 PM 77.5 °F - 62.6 °F 60% 29.82 in 10.0 mi South 6.9 mph - N/A   Clear
9:54 PM 77.2 °F - 62.6 °F 61% 29.82 in 10.0 mi South 4.6 mph - N/A   Clear
10:15 PM 76.1 °F - 62.8 °F 63% 29.83 in 10.0 mi South 5.8 mph - N/A   Clear
10:35 PM 75.9 °F - 62.8 °F 64% 29.83 in 10.0 mi South 6.9 mph - N/A   Clear
10:54 PM 75.9 °F - 63.0 °F 64% 29.84 in 10.0 mi South 8.1 mph - N/A   Clear
11:15 PM 75.6 °F - 63.0 °F 65% 29.84 in 10.0 mi South 5.8 mph - N/A   Clear
11:35 PM 74.8 °F - 62.8 °F 66% 29.83 in 10.0 mi South 5.8 mph - N/A   Clear
11:54 PM 74.5 °F - 63.0 °F 67% 29.83 in 10.0 mi South 4.6 mph - N/A   Clear